Tracking 28052 objects as of 24-Sep-2023
HD Live streaming from Space Station
objects crossing your sky now

STARLINK-6322

Track STARLINK-6322 now!
10-day predictions
STARLINK-6322 is classified as:


NORAD ID: 57337
Int'l Code: 2023-099K
Perigee: 565.2 km
Apogee: 567.2 km
Inclination: 43.0 °
Period: 95.8 minutes
Semi major axis: 6937 km
RCS: Unknown
Launch date: July 16, 2023
Source: United States (US)
Launch site: AIR FORCE EASTERN TEST RANGE (AFETR)
Your satellite tracking list
Your tracking list is empty




NASA's NSSDC Master Catalog

Two Line Element Set (TLE):
1 57337U 23099K   23266.96132120  .00000591  00000-0  58777-4 0  9994
2 57337  43.0025  87.0827 0001411 280.8572  79.2111 15.02545269 11813
Source of the keplerian elements: AFSPC